SB KEPS @ AMSAT $ORB13017.O Orbital Elements 13017.OSCAR
HR AMSAT ORBITAL ELEMENTS FOR OSCAR SATELLITES FROM WA5QGD FORT WORTH,TX January 17, 2013 BID: ORB13017.O TO ALL RADIO AMATEURS BT
Satellite: AO-07 Catalog number: 07530 Epoch time: 13017.90874900 Element set: 584 Inclination: 101.4201 deg RA of node: 012.9443 deg Eccentricity: 0.0011688 Arg of perigee: 220.8582 deg Mean anomaly: 171.2803 deg Mean motion: 12.53593914 rev/day Decay rate: -8.0e-08 rev/day^2 Epoch rev: 74695 Checksum: 287
Satellite: FO-29 Catalog number: 24278 Epoch time: 13017.19550189 Element set: 28 Inclination: 098.5765 deg RA of node: 095.8243 deg Eccentricity: 0.0350246 Arg of perigee: 195.1835 deg Mean anomaly: 163.8576 deg Mean motion: 13.52995649 rev/day Decay rate: 1.1e-07 rev/day^2 Epoch rev: 81089 Checksum: 345
Satellite: SO-33 Catalog number: 25509 Epoch time: 13017.85875019 Element set: 413 Inclination: 031.4318 deg RA of node: 198.6696 deg Eccentricity: 0.0351871 Arg of perigee: 281.9493 deg Mean anomaly: 215.3343 deg Mean motion: 14.28954472 rev/day Decay rate: 1.86e-06 rev/day^2 Epoch rev: 74337 Checksum: 332
Satellite: RS-22 Catalog number: 27939 Epoch time: 13017.58386271 Element set: 88 Inclination: 097.7973 deg RA of node: 213.2883 deg Eccentricity: 0.0012726 Arg of perigee: 309.1571 deg Mean anomaly: 050.8493 deg Mean motion: 14.64295457 rev/day Decay rate: 6.40e-06 rev/day^2 Epoch rev: 49725 Checksum: 338
Satellite: VO-52 Catalog number: 28650 Epoch time: 13016.97589570 Element set: 319 Inclination: 097.5782 deg RA of node: 043.2964 deg Eccentricity: 0.0027297 Arg of perigee: 059.3538 deg Mean anomaly: 301.0364 deg Mean motion: 14.83518013 rev/day Decay rate: 1.822e-05 rev/day^2 Epoch rev: 41666 Checksum: 324
Satellite: HO-68 Catalog number: 36122 Epoch time: 13017.70795259 Element set: 201 Inclination: 100.3306 deg RA of node: 078.4333 deg Eccentricity: 0.0007576 Arg of perigee: 341.7456 deg Mean anomaly: 018.3383 deg Mean motion: 13.16301523 rev/day Decay rate: -4.4e-07 rev/day^2 Epoch rev: 14861 Checksum: 274
/EX SB KEPS @ AMSAT $ORB13017.D Orbital Elements 13017.MICROS
HR AMSAT ORBITAL ELEMENTS FOR THE MICROSATS FROM WA5QGD FORT WORTH,TX January 17, 2013 BID: ORB13017.D TO ALL RADIO AMATEURS BT
Satellite: UO-11 Catalog number: 14781 Epoch time: 13017.22001808 Element set: 78 Inclination: 097.9247 deg RA of node: 080.5504 deg Eccentricity: 0.0009945 Arg of perigee: 065.6148 deg Mean anomaly: 294.6101 deg Mean motion: 14.80730060 rev/day Decay rate: 5.44e-06 rev/day^2 Epoch rev: 55159 Checksum: 288
Satellite: AO-16 Catalog number: 20439 Epoch time: 13017.86810377 Element set: 654 Inclination: 098.4572 deg RA of node: 321.5066 deg Eccentricity: 0.0010013 Arg of perigee: 239.7120 deg Mean anomaly: 153.5112 deg Mean motion: 14.32132127 rev/day Decay rate: 1.08e-06 rev/day^2 Epoch rev: 20072 Checksum: 253
Satellite: LO-19 Catalog number: 20442 Epoch time: 13017.85894058 Element set: 586 Inclination: 098.4252 deg RA of node: 323.7721 deg Eccentricity: 0.0011098 Arg of perigee: 230.2806 deg Mean anomaly: 163.4048 deg Mean motion: 14.32345989 rev/day Decay rate: 9.4e-07 rev/day^2 Epoch rev: 20091 Checksum: 305
Satellite: AO-27 Catalog number: 22825 Epoch time: 13017.85640803 Element set: 292 Inclination: 098.6026 deg RA of node: 323.6054 deg Eccentricity: 0.0008449 Arg of perigee: 017.6764 deg Mean anomaly: 016.0689 deg Mean motion: 14.29527670 rev/day Decay rate: 9.1e-07 rev/day^2 Epoch rev: 715 Checksum: 304
Satellite: IO-26 Catalog number: 22826 Epoch time: 13017.81574405 Element set: 47 Inclination: 098.5967 deg RA of node: 323.8844 deg Eccentricity: 0.0008869 Arg of perigee: 010.9168 deg Mean anomaly: 022.6849 deg Mean motion: 14.29807846 rev/day Decay rate: 1.06e-06 rev/day^2 Epoch rev: 727 Checksum: 330
Satellite: GO-32 Catalog number: 25397 Epoch time: 13016.89721577 Element set: 975 Inclination: 098.3927 deg RA of node: 351.4025 deg Eccentricity: 0.0001878 Arg of perigee: 047.8336 deg Mean anomaly: 312.3039 deg Mean motion: 14.23317457 rev/day Decay rate: 5.8e-07 rev/day^2 Epoch rev: 75442 Checksum: 326
Satellite: NO-44 Catalog number: 26931 Epoch time: 13017.78375716 Element set: 238 Inclination: 067.0529 deg RA of node: 287.2222 deg Eccentricity: 0.0004698 Arg of perigee: 264.9975 deg Mean anomaly: 095.0575 deg Mean motion: 14.29879698 rev/day Decay rate: -1.48e-06 rev/day^2 Epoch rev: 58992 Checksum: 372
Satellite: SO-50 Catalog number: 27607 Epoch time: 13017.29928679 Element set: 969 Inclination: 064.5590 deg RA of node: 003.4256 deg Eccentricity: 0.0065177 Arg of perigee: 203.8587 deg Mean anomaly: 155.9497 deg Mean motion: 14.72736433 rev/day Decay rate: 7.49e-06 rev/day^2 Epoch rev: 54149 Checksum: 356
Satellite: CO-55 Catalog number: 27844 Epoch time: 13017.55528900 Element set: 557 Inclination: 098.7034 deg RA of node: 028.8172 deg Eccentricity: 0.0008927 Arg of perigee: 328.5681 deg Mean anomaly: 177.4831 deg Mean motion: 14.21147811 rev/day Decay rate: 2.30e-06 rev/day^2 Epoch rev: 49533 Checksum: 316
Satellite: CO-57 Catalog number: 27848 Epoch time: 13017.59778847 Element set: 506 Inclination: 098.7117 deg RA of node: 028.2938 deg Eccentricity: 0.0008956 Arg of perigee: 334.9391 deg Mean anomaly: 172.3141 deg Mean motion: 14.20882754 rev/day Decay rate: 2.11e-06 rev/day^2 Epoch rev: 49527 Checksum: 345
Satellite: AO-51 Catalog number: 28375 Epoch time: 13017.91735121 Element set: 464 Inclination: 098.1785 deg RA of node: 339.5779 deg Eccentricity: 0.0084026 Arg of perigee: 110.2088 deg Mean anomaly: 250.8178 deg Mean motion: 14.41056034 rev/day Decay rate: 1.29e-06 rev/day^2 Epoch rev: 44969 Checksum: 320
Satellite: CP3 Catalog number: 31129 Epoch time: 13016.52500014 Element set: 367 Inclination: 097.8884 deg RA of node: 017.8267 deg Eccentricity: 0.0100655 Arg of perigee: 178.8712 deg Mean anomaly: 181.2723 deg Mean motion: 14.53429836 rev/day Decay rate: 7.15e-06 rev/day^2 Epoch rev: 30496 Checksum: 302
Satellite: CO-65 Catalog number: 32785 Epoch time: 13017.17466326 Element set: 527 Inclination: 097.7737 deg RA of node: 078.8934 deg Eccentricity: 0.0015805 Arg of perigee: 084.7089 deg Mean anomaly: 338.5874 deg Mean motion: 14.83537024 rev/day Decay rate: 1.131e-05 rev/day^2 Epoch rev: 25548 Checksum: 345
Satellite: PRISM Catalog number: 33493 Epoch time: 13017.74202875 Element set: 452 Inclination: 098.1955 deg RA of node: 169.9941 deg Eccentricity: 0.0017790 Arg of perigee: 324.4503 deg Mean anomaly: 035.5526 deg Mean motion: 14.85144829 rev/day Decay rate: 3.510e-05 rev/day^2 Epoch rev: 21558 Checksum: 311
Satellite: SOHLA-1 Catalog number: 33496 Epoch time: 13017.24767406 Element set: 944 Inclination: 098.1200 deg RA of node: 133.8248 deg Eccentricity: 0.0007832 Arg of perigee: 086.0043 deg Mean anomaly: 330.3736 deg Mean motion: 14.70170046 rev/day Decay rate: 3.89e-06 rev/day^2 Epoch rev: 21369 Checksum: 287
Satellite: SO-67 Catalog number: 35870 Epoch time: 13017.78869067 Element set: 708 Inclination: 097.2089 deg RA of node: 051.9353 deg Eccentricity: 0.0003260 Arg of perigee: 109.8829 deg Mean anomaly: 011.5691 deg Mean motion: 15.25728223 rev/day Decay rate: 5.096e-05 rev/day^2 Epoch rev: 18531 Checksum: 330
Satellite: TISAT-1 Catalog number: 36799 Epoch time: 13017.72646096 Element set: 724 Inclination: 098.0460 deg RA of node: 101.5375 deg Eccentricity: 0.0014478 Arg of perigee: 192.6434 deg Mean anomaly: 167.4426 deg Mean motion: 14.82778177 rev/day Decay rate: 2.455e-05 rev/day^2 Epoch rev: 13627 Checksum: 328
Satellite: STUDSAT Catalog number: 36801 Epoch time: 13016.74681463 Element set: 570 Inclination: 098.0548 deg RA of node: 102.4689 deg Eccentricity: 0.0011608 Arg of perigee: 179.4522 deg Mean anomaly: 180.6705 deg Mean motion: 14.86672597 rev/day Decay rate: 8.209e-05 rev/day^2 Epoch rev: 13622 Checksum: 313
Satellite: FO-69 Catalog number: 37227 Epoch time: 13016.48957732 Element set: 0040 Inclination: 071.9681 deg RA of node: 201.1781 deg Eccentricity: 0.0018476 Arg of perigee: 280.3735 deg Mean anomaly: 079.5362 deg Mean motion: 14.77342940 rev/day Decay rate: 6.12e-06 rev/day^2 Epoch rev: 00650 Checksum: 305
Satellite: FO-70 Catalog number: 37380 Epoch time: 13016.12519132 Element set: 0039 Inclination: 071.9715 deg RA of node: 202.8141 deg Eccentricity: 0.0019059 Arg of perigee: 278.4604 deg Mean anomaly: 081.4395 deg Mean motion: 14.77085062 rev/day Decay rate: 5.48e-06 rev/day^2 Epoch rev: 00652 Checksum: 288
Satellite: ALMASAT-1 Catalog number: 38078 Epoch time: 13017.84537137 Element set: 924 Inclination: 069.4785 deg RA of node: 187.9469 deg Eccentricity: 0.0724358 Arg of perigee: 338.2016 deg Mean anomaly: 018.9629 deg Mean motion: 14.18160185 rev/day Decay rate: 1.6413e-04 rev/day^2 Epoch rev: 4788 Checksum: 347
Satellite: XATCOBEO Catalog number: 38082 Epoch time: 13017.82061895 Element set: 858 Inclination: 069.4787 deg RA of node: 176.4631 deg Eccentricity: 0.0648936 Arg of perigee: 331.8391 deg Mean anomaly: 024.8907 deg Mean motion: 14.37856098 rev/day Decay rate: 3.9799e-04 rev/day^2 Epoch rev: 4819 Checksum: 373
/EX SB KEPS @ AMSAT $ORB13017.W Orbital Elements 13017.WEATHER
HR AMSAT ORBITAL ELEMENTS FOR WEATHER SATELLITES FROM WA5QGD FORT WORTH,TX January 17, 2013 BID: ORB13017.W TO ALL RADIO AMATEURS BT
Satellite: NOAA-10 Catalog number: 16969 Epoch time: 13017.14629532 Element set: 214 Inclination: 098.5618 deg RA of node: 048.1629 deg Eccentricity: 0.0011372 Arg of perigee: 331.9594 deg Mean anomaly: 059.2598 deg Mean motion: 14.27609316 rev/day Decay rate: 8.7e-07 rev/day^2 Epoch rev: 37039 Checksum: 323
Satellite: NOAA-11 Catalog number: 19531 Epoch time: 13017.19968940 Element set: 208 Inclination: 098.7207 deg RA of node: 103.7412 deg Eccentricity: 0.0010453 Arg of perigee: 337.3121 deg Mean anomaly: 075.2061 deg Mean motion: 14.15000042 rev/day Decay rate: -2.4e-07 rev/day^2 Epoch rev: 25477 Checksum: 254
